SCP
0 0 0 0 0 0 0 0 0 0 0 0 0 0 0 0 0 0 0 0 0 0 0 0 0 0 0 0 -0 -0 -0 -0 -0 -0 -0 -0 0 0 0 0 0 0 0
0 0 0 0 0 0 0 0 0 0 0 0 0 0 0 0 0 0 0 0 0 0 0 0 0 0 0 0 0 0 0 0 0 0 0 0 0 0 0 0 0 0 0
0 0 0 0 0 0 0 0 0 0 0 0 0 0 0 0 0 0 0 0 0 0 0 0 0 0 0 0 0 0 0 0 0 0 0 0 0 0 0 0 0 0 0
0 0 0 0 0 0 0 0 0 0 0 0 0 0 0 0 0 0 0 0 0 0 0 0 0 0 0 0 0 0 0 0 0 0 0 0 0 0 0 0 0 0 0
0 0 0 0 0 0 0 0 0 0 0 0 0 0 0 0 0 0 0 0 0 0 0 0 0 0 0 0 0 0 0 0 0 0 0 0 0 0 0 0 0 0 0
0 0 0 0 0 0 0 0 0 0 0 0 0 0 0 0 0 0 0 0 0 0 0 0 0 0 0 0 0 0 0 0 0 0 0 0 0 0 0 0 0 0 0
0 0 0 0 0 0 0 0 0 0 0 0 0 0 0 0 0 0 0 0 0 0 0 0 0 0 0 0 0 0 0 0 0 0 0 0 0 0 0 0 0 0 0
0 0 0 0 0 0 0 0 0 0 0 0 0 0 0 0 0 0 0 0 0 0 0 0 0 0 0 0 0 0 0 0 0 0 0 0 0 0 0 0 0 0 0
0 0 0 0 0 0 0 0 0 0 0 0 0 0 0 0 0 0 0 0 0 0 0 0 0 0 0 0 0 0 0 0 0 0 0 0 0 0 0 0 0 0 0
0 0 0 0 0 0 0 0 0 0 0 0 0 0 0 0 0 0 0 0 0 0 0 0 0 0 0 0 0 0 0 0 0 0 0 0 0 0 0 0 0 0 0
0 0 0 0 0 0 0 0 0 0 0 0 0 0 0 0 0 0 0 0 0 0 0 0 0 0 0 0 0 0 0 0 0 0 0 0 0 0 0 0 0 0 0
0 0 0 0 0 0 0 0 0 0 0 0 0 0 0 0 0 0 0 0 0 0 0 0 0 0 0 0 0 0 0 0 0 0 0 0 0 0 0 0 0 0 0
0 0 0 0 0 0 0 0 0 0 0 0 0 0 0 0 0 0 0 0 0 0 0 0 0 0 0 0 0 0 0 0 0 0 0 0 0 0 0 0 0 0 0
0 0 0 0 0 0 0 0 0 0 0 0 0 0 0 0 0 0 0 0 0 0 0 0 0 0 0 0 0 0 0 0 0 0 0 0 0 0 0 0 0 0 0
0 0 0 0 0 0 0 0 0 0 0 0 0 0 0 0 0 0 0 0 0 0 0 0 0 0 0 0 0 0 0 0 0 0 0 0 0 0 0 0 0 0 0
0 0 0 0 0 0 0 0 0 0 0 0 0 0 0 0 0 0 0 0 0 0 0 0 0 0 0 0 0 0 0 0 0 0 0 0 0 0 0 0 0 0 0
0 0 0 0 0 0 0 0 0 0 0 0 0 0 0 0 0 0 0 0 0 0 0 0 0 0 0 0 0 0 0 0 0 0 0 0 0 0 0 0 0 0 0
0 0 0 0 0 0 0 0 0 0 0 0 0 0 0 0 0 0 0 0 0 0 0 0 0 0 0 0 0 0 0 0 0 0 0 0 0 0 0 0 0 0 0
0 0 0 0 0 0 0 0 0 0 0 0 0 0 0 0 0 0 0 0 0 0 0 0 0 0 0 0 0 0 0 0 0 0 0 0 0 0 0 0 0 0 0
0 0 0 0 0 0 0 0 0 0 0 0 0 0 0 0 0 0 0 0 0 0 0 0 0 0 0 0 0 0 0 0 0 0 0 0 0 0 0 0 0 0 0
0 0 0 0 0 0 0 0 0 0 0 0 0 0 0 0 0 0 0 0 0 0 0 0 0 0 0 0 0 0 0 0 0 0 0 0 0 0 0 0 0 0 0
0 0 0 0 0 0 0 0 0 0 0 0 0 0 0 0 0 0 0 0 0 0 0 0 0 0 0 0 0 0 0 0 0 0 0 0 0 0 0 0 0 0 0
0 0 0 0 0 0 0 0 0 0 0 0 0 0 0 0 0 0 0 0 0 0 0 0 0 0 0 0 0 0 0 0 0 0 0 0 0 0 0 0 0 0 0
0 0 0 0 0 0 0 0 0 0 0 0 0 0 0 0 0 0 0 0 0 0 0 0 0 0 0 0 0 0 0 0 0 0 0 0 0 0 0 0 0 0 0
0 0 0 0 0 0 0 0 0 0 0 0 0 0 0 0 0 0 0 0 0 0 0 0 0 0 0 0 0 0 0 0 0 0 0 0 0 0 0 0 0 0 0
0 0 0 0 0 0 0 0 0 0 0 0 0 0 0 0 0 0 0 0 0 0 0 0 0 0 0 0 0 0 0 0 0 0 0 0 0 0 0 0 0 0 0
Wind_Speed_500mb
3 2 3 4 5 6 7 8 9 7 7 2 6 10 12 15 6 6 4 2 3 10 12 15 16 12 4 5 8 11 7 6 5 5 7 8 8 8 9 13 12 14 17
3 2 3 5 7 7 7 8 8 8 5 8 10 12 14 4 1 7 7 2 2 5 7 8 8 8 10 9 9 20 22 17 15 7 9 13 11 9 12 17 20 20 23
3 4 5 7 9 8 8 7 7 7 9 13 13 4 1 2 4 5 4 3 3 4 5 6 8 9 11 12 16 21 20 15 14 11 9 15 16 17 17 16 16 15 18
5 5 8 8 8 8 8 8 6 3 13 14 10 7 2 1 7 10 9 9 11 10 10 13 14 13 15 17 19 21 23 20 17 16 16 21 24 21 15 14 15 15 17
6 7 7 8 8 8 8 9 7 6 11 13 12 8 3 8 12 13 13 13 13 17 18 18 18 19 18 19 20 22 24 24 22 19 19 19 23 17 12 8 13 14 14
6 6 6 7 9 9 10 10 10 8 9 12 13 17 10 13 15 18 21 20 20 21 23 26 25 23 24 26 25 26 26 27 26 24 21 21 19 23 18 20 17 17 17
6 7 8 8 9 11 12 12 12 11 13 14 15 14 20 21 21 21 24 24 28 26 29 27 28 30 32 30 26 28 28 28 29 30 28 28 29 29 30 26 24 18 19
8 9 9 10 11 12 12 13 14 14 15 14 14 14 8 11 20 18 26 25 32 33 31 30 27 30 30 35 32 30 29 28 29 28 27 26 25 25 25 27 26 24 21
10 11 12 14 14 15 15 15 16 16 16 18 15 11 7 6 19 18 22 30 29 33 35 35 33 32 33 35 36 36 30 32 31 32 30 29 28 24 19 21 25 25 22
13 14 15 16 17 17 19 19 19 19 20 20 20 17 17 24 14 16 18 27 36 38 34 40 42 40 39 37 37 39 37 34 34 32 32 31 30 27 23 25 29 31 29
15 16 17 19 20 21 22 22 22 22 23 24 24 25 26 26 28 28 42 33 24 33 45 48 47 47 45 42 39 41 38 37 37 38 36 34 34 34 36 36 33 33 35
19 18 19 21 23 24 25 25 25 25 27 29 29 30 31 32 33 29 37 52 53 52 48 51 54 49 46 47 45 41 41 40 41 41 40 39 40 41 42 40 36 35 37
21 23 24 23 23 24 26 27 28 30 32 34 35 38 39 41 42 44 49 57 61 64 61 59 58 56 53 46 46 45 42 41 42 42 42 44 45 45 45 43 41 39 39
17 20 22 23 23 24 26 29 30 32 36 38 40 42 44 45 47 50 54 57 65 68 69 70 63 59 58 54 49 48 48 45 45 46 46 49 50 48 47 46 45 44 41
17 18 20 22 24 25 27 30 33 35 38 41 44 45 47 48 50 52 55 56 59 69 75 75 61 57 56 59 63 62 58 55 54 55 55 52 52 52 51 49 49 49 46
19 20 21 22 23 25 26 29 33 35 38 39 43 47 50 50 51 54 57 59 63 70 76 80 76 70 67 73 78 77 72 67 64 63 65 63 57 55 54 53 52 52 52
16 16 17 18 21 23 25 30 34 38 43 46 47 50 53 53 56 56 58 61 66 70 85 93 86 77 75 77 82 84 83 76 72 69 68 68 66 59 57 56 54 54 54
8 11 15 19 22 26 30 33 36 38 42 46 49 53 57 57 60 62 64 65 68 71 78 93 88 85 81 76 78 81 83 84 81 76 73 72 69 67 65 60 58 58 57
10 15 21 25 28 31 34 35 37 41 44 48 52 56 59 59 63 63 66 71 72 74 79 87 98 91 92 86 82 81 86 86 86 83 79 76 75 72 70 68 63 63 62
14 18 22 28 33 37 40 43 43 47 52 55 57 59 61 61 62 62 63 65 67 73 78 86 96 100 97 95 90 87 90 89 92 87 88 82 74 72 72 70 66 65 64
19 25 31 36 39 42 45 47 50 54 58 60 59 59 60 59 58 59 62 68 68 70 73 77 87 91 87 80 80 77 84 88 98 95 90 86 78 73 74 70 67 68 65
27 33 38 42 45 48 49 50 52 56 59 60 62 60 58 57 57 57 57 60 61 64 71 73 82 84 81 73 77 82 86 84 92 86 83 90 81 76 69 66 60 58 59
36 40 45 49 52 54 54 54 54 57 60 61 61 61 59 56 53 54 56 58 59 59 61 68 78 81 83 84 77 78 78 84 93 92 66 70 62 69 67 63 61 56 53
43 49 53 54 56 56 54 54 54 58 62 62 62 61 61 61 57 59 61 65 66 67 67 66 67 74 75 77 76 81 85 91 96 88 77 86 85 85 78 66 60 56 54
51 53 55 57 58 57 53 54 57 61 66 67 66 64 64 66 65 58 54 63 71 73 67 63 63 70 73 71 73 76 88 86 93 92 96 91 91 85 84 70 66 60 59
54 56 58 57 58 60 58 59 59 65 73 77 76 73 68 67 67 61 56 61 70 76 71 72 74 76 76 77 73 73 84 84 84 77 89 82 91 81 66 77 68 64 59
Wind_Direction_500mb
39 356 20 333 353 347 353 343 342 345 351 106 247 225 244 265 280 351 357 80 230 239 263 268 273 261 263 315 310 320 327 299 312 333 311 312 313 317 323 303 305 311 318
24 43 335 341 347 347 342 356 10 41 315 278 288 267 256 275 295 314 10 65 264 271 281 295 303 295 282 285 298 285 295 298 309 305 319 306 319 315 337 325 320 319 312
6 346 345 347 340 345 352 5 23 80 311 327 299 274 116 79 6 9 7 264 247 277 287 297 297 290 285 284 291 302 311 314 308 293 308 299 290 307 309 324 315 312 334
345 342 336 345 343 351 3 351 22 17 324 330 330 341 97 319 229 274 300 309 313 302 299 305 301 298 296 292 291 295 302 306 304 300 299 296 303 307 319 326 344 344 324
334 338 342 342 337 346 357 343 358 311 312 333 342 346 212 216 265 274 281 283 287 298 303 308 301 306 303 300 298 299 304 308 309 305 299 300 310 310 301 318 355 330 329
337 335 335 332 334 344 344 338 333 322 311 311 319 321 338 298 283 278 285 292 295 295 301 310 306 304 307 309 307 304 302 302 303 302 299 297 304 312 306 288 305 339 332
333 330 330 334 335 335 335 334 327 321 319 321 320 337 316 318 316 317 298 289 297 300 302 305 306 308 311 309 307 300 300 301 303 305 307 305 304 305 310 307 301 297 325
326 327 326 323 322 322 322 327 326 324 319 327 324 319 335 297 285 310 319 314 308 307 303 299 296 297 295 301 301 292 291 289 289 288 291 294 296 297 302 304 308 309 301
316 316 310 309 309 312 318 319 320 321 317 319 325 312 313 276 299 298 306 304 309 310 308 299 297 293 293 294 293 292 290 286 287 287 289 289 290 291 293 297 301 305 302
312 305 301 301 302 309 313 314 317 316 313 313 315 307 293 283 295 289 284 289 302 303 306 306 303 300 299 297 290 291 290 284 283 283 283 283 287 288 286 292 301 303 306
310 302 299 299 303 308 308 308 308 308 309 309 306 304 301 295 288 280 290 295 282 286 294 297 301 300 299 295 289 289 288 284 284 286 284 286 287 285 285 291 293 296 301
316 314 308 306 306 307 306 305 304 306 305 304 301 297 295 291 289 281 279 291 291 295 291 289 292 296 297 291 289 285 287 286 285 284 283 283 286 285 284 288 290 291 291
313 319 321 320 312 304 300 300 303 303 301 299 297 296 294 293 291 287 283 286 287 293 292 292 295 297 297 294 291 285 286 285 282 279 278 280 282 281 282 282 283 282 284
311 307 309 313 315 309 306 304 303 303 303 301 300 298 296 295 292 291 288 290 290 290 292 294 297 296 296 296 294 288 287 283 279 277 277 279 282 282 282 282 282 281 281
302 300 304 310 314 315 313 310 310 309 304 303 301 299 296 296 294 293 290 288 285 283 290 295 294 296 289 287 290 288 287 286 282 280 278 277 280 282 282 281 280 280 279
304 309 313 315 317 317 314 311 310 310 306 306 304 303 302 302 298 295 292 290 286 282 276 287 293 291 287 283 286 287 286 285 281 278 280 281 279 277 277 277 277 276 276
294 306 317 322 322 319 317 314 315 315 313 312 310 308 307 306 303 300 297 293 289 286 281 290 291 293 286 281 282 286 287 285 282 278 278 278 277 275 274 274 274 273 272
311 324 325 326 326 325 322 319 314 309 306 305 305 301 302 303 300 301 300 296 293 292 289 290 294 293 291 288 286 281 283 284 283 282 278 276 275 274 274 273 274 272 269
327 334 338 337 332 326 320 317 311 307 304 303 303 302 301 300 297 297 295 294 293 292 289 289 292 293 292 292 290 286 282 281 283 283 281 277 275 273 272 271 272 271 267
344 343 335 329 325 323 322 320 316 311 308 306 305 303 302 300 299 298 295 291 290 287 285 282 284 287 288 290 289 286 283 281 283 284 282 278 272 268 267 267 269 270 266
333 329 329 327 326 324 322 319 315 312 310 308 307 306 304 303 300 298 295 295 295 292 288 286 283 284 283 282 279 280 278 283 286 284 281 277 274 267 264 264 266 268 261
328 327 326 324 323 322 322 319 314 310 310 310 310 310 308 307 306 305 302 299 296 295 293 292 291 287 284 280 281 279 277 274 271 277 279 277 272 267 264 262 264 262 257
325 324 324 323 322 322 321 319 316 312 310 311 311 312 311 309 308 306 303 298 295 292 288 287 285 284 287 289 285 282 275 267 264 269 264 265 265 264 267 262 266 262 258
322 323 322 321 320 320 320 318 317 311 308 309 310 309 308 307 308 308 303 298 297 297 294 291 289 290 290 292 288 285 282 278 272 265 255 255 264 260 266 262 262 256 256
319 319 321 320 319 319 321 320 320 317 313 312 312 311 308 304 304 303 299 296 296 296 295 293 289 289 289 287 283 286 280 275 272 267 261 252 256 257 258 259 258 254 258
320 320 319 321 323 322 323 323 321 318 317 316 314 311 309 307 307 300 295 294 294 296 298 298 297 293 289 287 288 285 280 275 270 270 263 249 252 244 246 255 249 247 242
Wind_Speed_850mb
3 2 3 4 5 6 7 8 9 7 7 2 6 10 12 15 6 6 4 2 3 10 12 15 16 12 4 5 8 11 7 6 5 5 7 8 8 8 9 13 12 14 17
3 2 3 5 7 7 7 8 8 8 5 8 10 12 14 4 1 7 7 2 2 5 7 8 8 8 10 9 9 20 22 17 15 7 9 13 11 9 12 17 20 20 23
3 4 5 7 9 8 8 7 7 7 9 13 13 4 1 2 4 5 4 3 3 4 5 6 8 9 11 12 16 21 20 15 14 11 9 15 16 17 17 16 16 15 18
5 5 8 8 8 8 8 8 6 3 13 14 10 7 2 1 7 10 9 9 11 10 10 13 14 13 15 17 19 21 23 20 17 16 16 21 24 21 15 14 15 15 17
6 7 7 8 8 8 8 9 7 6 11 13 12 8 3 8 12 13 13 13 13 17 18 18 18 19 18 19 20 22 24 24 22 19 19 19 23 17 12 8 13 14 14
6 6 6 7 9 9 10 10 10 8 9 12 13 17 10 13 15 18 21 20 20 21 23 26 25 23 24 26 25 26 26 27 26 24 21 21 19 23 18 20 17 17 17
6 7 8 8 9 11 12 12 12 11 13 14 15 14 20 21 21 21 24 24 28 26 29 27 28 30 32 30 26 28 28 28 29 30 28 28 29 29 30 26 24 18 19
8 9 9 10 11 12 12 13 14 14 15 14 14 14 8 11 20 18 26 25 32 33 31 30 27 30 30 35 32 30 29 28 29 28 27 26 25 25 25 27 26 24 21
10 11 12 14 14 15 15 15 16 16 16 18 15 11 7 6 19 18 22 30 29 33 35 35 33 32 33 35 36 36 30 32 31 32 30 29 28 24 19 21 25 25 22
13 14 15 16 17 17 19 19 19 19 20 20 20 17 17 24 14 16 18 27 36 38 34 40 42 40 39 37 37 39 37 34 34 32 32 31 30 27 23 25 29 31 29
15 16 17 19 20 21 22 22 22 22 23 24 24 25 26 26 28 28 42 33 24 33 45 48 47 47 45 42 39 41 38 37 37 38 36 34 34 34 36 36 33 33 35
19 18 19 21 23 24 25 25 25 25 27 29 29 30 31 32 33 29 37 52 53 52 48 51 54 49 46 47 45 41 41 40 41 41 40 39 40 41 42 40 36 35 37
21 23 24 23 23 24 26 27 28 30 32 34 35 38 39 41 42 44 49 57 61 64 61 59 58 56 53 46 46 45 42 41 42 42 42 44 45 45 45 43 41 39 39
17 20 22 23 23 24 26 29 30 32 36 38 40 42 44 45 47 50 54 57 65 68 69 70 63 59 58 54 49 48 48 45 45 46 46 49 50 48 47 46 45 44 41
17 18 20 22 24 25 27 30 33 35 38 41 44 45 47 48 50 52 55 56 59 69 75 75 61 57 56 59 63 62 58 55 54 55 55 52 52 52 51 49 49 49 46
19 20 21 22 23 25 26 29 33 35 38 39 43 47 50 50 51 54 57 59 63 70 76 80 76 70 67 73 78 77 72 67 64 63 65 63 57 55 54 53 52 52 52
16 16 17 18 21 23 25 30 34 38 43 46 47 50 53 53 56 56 58 61 66 70 85 93 86 77 75 77 82 84 83 76 72 69 68 68 66 59 57 56 54 54 54
8 11 15 19 22 26 30 33 36 38 42 46 49 53 57 57 60 62 64 65 68 71 78 93 88 85 81 76 78 81 83 84 81 76 73 72 69 67 65 60 58 58 57
10 15 21 25 28 31 34 35 37 41 44 48 52 56 59 59 63 63 66 71 72 74 79 87 98 91 92 86 82 81 86 86 86 83 79 76 75 72 70 68 63 63 62
14 18 22 28 33 37 40 43 43 47 52 55 57 59 61 61 62 62 63 65 67 73 78 86 96 100 97 95 90 87 90 89 92 87 88 82 74 72 72 70 66 65 64
19 25 31 36 39 42 45 47 50 54 58 60 59 59 60 59 58 59 62 68 68 70 73 77 87 91 87 80 80 77 84 88 98 95 90 86 78 73 74 70 67 68 65
27 33 38 42 45 48 49 50 52 56 59 60 62 60 58 57 57 57 57 60 61 64 71 73 82 84 81 73 77 82 86 84 92 86 83 90 81 76 69 66 60 58 59
36 40 45 49 52 54 54 54 54 57 60 61 61 61 59 56 53 54 56 58 59 59 61 68 78 81 83 84 77 78 78 84 93 92 66 70 62 69 67 63 61 56 53
43 49 53 54 56 56 54 54 54 58 62 62 62 61 61 61 57 59 61 65 66 67 67 66 67 74 75 77 76 81 85 91 96 88 77 86 85 85 78 66 60 56 54
51 53 55 57 58 57 53 54 57 61 66 67 66 64 64 66 65 58 54 63 71 73 67 63 63 70 73 71 73 76 88 86 93 92 96 91 91 85 84 70 66 60 59
54 56 58 57 58 60 58 59 59 65 73 77 76 73 68 67 67 61 56 61 70 76 71 72 74 76 76 77 73 73 84 84 84 77 89 82 91 81 66 77 68 64 59
Wind_Direction_850mb
39 356 20 333 353 347 353 343 342 345 351 106 247 225 244 265 280 351 357 80 230 239 263 268 273 261 263 315 310 320 327 299 312 333 311 312 313 317 323 303 305 311 318
24 43 335 341 347 347 342 356 10 41 315 278 288 267 256 275 295 314 10 65 264 271 281 295 303 295 282 285 298 285 295 298 309 305 319 306 319 315 337 325 320 319 312
6 346 345 347 340 345 352 5 23 80 311 327 299 274 116 79 6 9 7 264 247 277 287 297 297 290 285 284 291 302 311 314 308 293 308 299 290 307 309 324 315 312 334
345 342 336 345 343 351 3 351 22 17 324 330 330 341 97 319 229 274 300 309 313 302 299 305 301 298 296 292 291 295 302 306 304 300 299 296 303 307 319 326 344 344 324
334 338 342 342 337 346 357 343 358 311 312 333 342 346 212 216 265 274 281 283 287 298 303 308 301 306 303 300 298 299 304 308 309 305 299 300 310 310 301 318 355 330 329
337 335 335 332 334 344 344 338 333 322 311 311 319 321 338 298 283 278 285 292 295 295 301 310 306 304 307 309 307 304 302 302 303 302 299 297 304 312 306 288 305 339 332
333 330 330 334 335 335 335 334 327 321 319 321 320 337 316 318 316 317 298 289 297 300 302 305 306 308 311 309 307 300 300 301 303 305 307 305 304 305 310 307 301 297 325
326 327 326 323 322 322 322 327 326 324 319 327 324 319 335 297 285 310 319 314 308 307 303 299 296 297 295 301 301 292 291 289 289 288 291 294 296 297 302 304 308 309 301
316 316 310 309 309 312 318 319 320 321 317 319 325 312 313 276 299 298 306 304 309 310 308 299 297 293 293 294 293 292 290 286 287 287 289 289 290 291 293 297 301 305 302
312 305 301 301 302 309 313 314 317 316 313 313 315 307 293 283 295 289 284 289 302 303 306 306 303 300 299 297 290 291 290 284 283 283 283 283 287 288 286 292 301 303 306
310 302 299 299 303 308 308 308 308 308 309 309 306 304 301 295 288 280 290 295 282 286 294 297 301 300 299 295 289 289 288 284 284 286 284 286 287 285 285 291 293 296 301
316 314 308 306 306 307 306 305 304 306 305 304 301 297 295 291 289 281 279 291 291 295 291 289 292 296 297 291 289 285 287 286 285 284 283 283 286 285 284 288 290 291 291
313 319 321 320 312 304 300 300 303 303 301 299 297 296 294 293 291 287 283 286 287 293 292 292 295 297 297 294 291 285 286 285 282 279 278 280 282 281 282 282 283 282 284
311 307 309 313 315 309 306 304 303 303 303 301 300 298 296 295 292 291 288 290 290 290 292 294 297 296 296 296 294 288 287 283 279 277 277 279 282 282 282 282 282 281 281
302 300 304 310 314 315 313 310 310 309 304 303 301 299 296 296 294 293 290 288 285 283 290 295 294 296 289 287 290 288 287 286 282 280 278 277 280 282 282 281 280 280 279
304 309 313 315 317 317 314 311 310 310 306 306 304 303 302 302 298 295 292 290 286 282 276 287 293 291 287 283 286 287 286 285 281 278 280 281 279 277 277 277 277 276 276
294 306 317 322 322 319 317 314 315 315 313 312 310 308 307 306 303 300 297 293 289 286 281 290 291 293 286 281 282 286 287 285 282 278 278 278 277 275 274 274 274 273 272
311 324 325 326 326 325 322 319 314 309 306 305 305 301 302 303 300 301 300 296 293 292 289 290 294 293 291 288 286 281 283 284 283 282 278 276 275 274 274 273 274 272 269
327 334 338 337 332 326 320 317 311 307 304 303 303 302 301 300 297 297 295 294 293 292 289 289 292 293 292 292 290 286 282 281 283 283 281 277 275 273 272 271 272 271 267
344 343 335 329 325 323 322 320 316 311 308 306 305 303 302 300 299 298 295 291 290 287 285 282 284 287 288 290 289 286 283 281 283 284 282 278 272 268 267 267 269 270 266
333 329 329 327 326 324 322 319 315 312 310 308 307 306 304 303 300 298 295 295 295 292 288 286 283 284 283 282 279 280 278 283 286 284 281 277 274 267 264 264 266 268 261
328 327 326 324 323 322 322 319 314 310 310 310 310 310 308 307 306 305 302 299 296 295 293 292 291 287 284 280 281 279 277 274 271 277 279 277 272 267 264 262 264 262 257
325 324 324 323 322 322 321 319 316 312 310 311 311 312 311 309 308 306 303 298 295 292 288 287 285 284 287 289 285 282 275 267 264 269 264 265 265 264 267 262 266 262 258
322 323 322 321 320 320 320 318 317 311 308 309 310 309 308 307 308 308 303 298 297 297 294 291 289 290 290 292 288 285 282 278 272 265 255 255 264 260 266 262 262 256 256
319 319 321 320 319 319 321 320 320 317 313 312 312 311 308 304 304 303 299 296 296 296 295 293 289 289 289 287 283 286 280 275 272 267 261 252 256 257 258 259 258 254 258
320 320 319 321 323 322 323 323 321 318 317 316 314 311 309 307 307 300 295 294 294 296 298 298 297 293 289 287 288 285 280 275 270 270 263 249 252 244 246 255 249 247 242